Weather History for Rogers, AR

Change the Weather History Date:

Friday, March 15, 2013

  Actual Average Record
Temperature  
Mean Temperature 64 °F -  
Max Temperature 79 °F 53 °F 79 °F (2013)
Min Temperature 51 °F 35 °F 23 °F (1997)
Growing Degree Days 14 (Base 50)    
Moisture  
Dew Point 44 °F    
Average Humidity 50    
Maximum Humidity 74    
Minimum Humidity 29    
Precipitation  
Precipitation 0.00 in - - ()
Sea Level Pressure  
Sea Level Pressure 29.95 in    
Wind  
Wind Speed 12 mph (SSW)    
Max Wind Speed 21 mph    
Max Gust Speed 30 mph    
Visibility 10 miles    
Events      
Averages and records for this station are not official NWS values.
T = Trace of Precipitation, MM = Missing Value Source: NWS Daily Summary

Daily Weather History Graph

Daily Weather History Graph

Search for Another Location

Airport:

Trip Planner

Search our weather history database for the weather conditions in past years. The results will help you decide how hot, cold, wet, or windy it might be!

Date:

Astronomy

Mar. 15, 2013 Rise Set
Actual Time 7:26 AM CDT 7:24 PM CDT
Civil Twilight 7:01 AM CDT 7:49 PM CDT
Nautical Twilight 6:31 AM CDT 8:19 PM CDT
Astronomical Twilight 6:01 AM CDT 8:49 PM CDT
Moon 9:25 AM CDT (3/15) 11:30 PM CDT (3/15)
Length of Visible Light 12h 48m
Length of Day
11h 57m
Waxing Crescent, 15% of the Moon is Illuminated
Mar 15
Waxing Crescent
Mar 19
First Quarter
Mar 27
Full
Apr 2
Last Quarter
Apr 10
New

Hourly Weather History & Observations

Time (CDT) Temp. Dew Point Humidity Pressure Visibility Wind Dir Wind Speed Gust Speed Precip Events Conditions
12:57 AM 57.0 °F 42.1 °F 57% 30.11 in 10.0 mi SSW 11.5 mph - N/A   Clear
1:57 AM 55.0 °F 42.1 °F 62% 30.10 in 10.0 mi SSW 9.2 mph - N/A   Clear
2:57 AM 53.1 °F 42.1 °F 66% 30.10 in 10.0 mi SSW 8.1 mph - N/A   Clear
3:57 AM 53.1 °F 42.1 °F 66% 30.08 in 10.0 mi SSW 6.9 mph - N/A   Clear
4:57 AM 52.0 °F 43.0 °F 71% 30.06 in 10.0 mi SSW 6.9 mph - N/A   Clear
5:57 AM 51.1 °F 43.0 °F 74% 30.06 in 10.0 mi SSW 8.1 mph - N/A   Clear
6:57 AM 52.0 °F 43.0 °F 71% 30.05 in 10.0 mi SSW 11.5 mph - N/A   Clear
7:57 AM 55.9 °F 43.0 °F 62% 30.04 in 10.0 mi SSW 13.8 mph - N/A   Clear
8:57 AM 60.1 °F 44.1 °F 55% 30.02 in 10.0 mi SSW 15.0 mph - N/A   Clear
9:57 AM 64.9 °F 45.0 °F 48% 30.01 in 10.0 mi SW 12.7 mph - N/A   Clear
10:57 AM 68.0 °F 44.1 °F 42% 29.99 in 10.0 mi SW 18.4 mph 28.8 mph N/A   Clear
11:57 AM 71.1 °F 45.0 °F 39% 29.97 in 10.0 mi SW 16.1 mph - N/A   Clear
1:57 PM 77.0 °F 46.0 °F 33% 29.91 in 10.0 mi SSW 18.4 mph - N/A   Clear
2:57 PM 78.1 °F 45.0 °F 31% 29.86 in 10.0 mi SSW 19.6 mph 28.8 mph N/A   Clear
4:57 PM 78.1 °F 43.0 °F 29% 29.82 in 10.0 mi SSW 15.0 mph 29.9 mph N/A   Clear
5:57 PM 75.0 °F 44.1 °F 33% 29.81 in 10.0 mi SSW 20.7 mph 25.3 mph N/A   Clear
6:57 PM 73.0 °F 43.0 °F 34% 29.81 in 10.0 mi SSW 10.4 mph - N/A   Clear
7:57 PM 70.0 °F 44.1 °F 39% 29.81 in 10.0 mi SSW 9.2 mph - N/A   Clear
8:57 PM 68.0 °F 44.1 °F 42% 29.81 in 10.0 mi SSW 11.5 mph - N/A   Clear
9:57 PM 66.9 °F 44.1 °F 44% 29.81 in 10.0 mi SSW 15.0 mph - N/A   Clear
10:57 PM 66.0 °F 45.0 °F 47% 29.80 in 10.0 mi SSW 17.3 mph - N/A   Clear